EW0415 Weather Reports


time (UTC)temp
F
wind
direction
speed
knots
gust
knots
rain 1hr
in
rain 24hr
in
rain mn
in
humidity
%
barometer
mb
20260904160034 61 340 0.9 3.5 0.00 0.11 0.00 75 1010.8
20260904155519 61 0 0.9 3.5 0.00 0.11 0.00 75 1010.6
20260904155019 61 0 0.0 0.0 0.00 0.11 0.00 75 1010.5
20260904154534 61 0 0.0 2.6 0.00 0.11 0.00 75 1010.4
20260904154018 61 0 0.0 2.6 0.00 0.11 0.00 75 1010.2
20260904153517 62 339 0.9 2.6 0.00 0.11 0.00 75 1010.3
20260904153037 62 0 0.0 1.7 0.00 0.11 0.00 75 1010.2
20260904152518 62 0 0.0 0.9 0.00 0.11 0.00 75 1010.2
20260904152017 62 0 0.0 0.9 0.00 0.11 0.00 75 1010.7
20260904151534 62 0 0.0 2.6 0.00 0.11 0.00 75 1010.4
20260904151019 62 0 0.0 2.6 0.00 0.11 0.00 75 1010.7
20260904150519 62 0 0.0 3.5 0.00 0.11 0.00 75 1010.5
20260904150038 62 0 0.0 3.5 0.00 0.11 0.00 75 1010.4
20260904145517 62 340 0.9 3.5 0.00 0.11 0.00 75 1010.4
20260904145018 62 340 0.9 2.6 0.00 0.11 0.00 75 1010.2
20260904144533 62 0 0.0 4.3 0.00 0.11 0.00 74 1010.4
20260904144017 62 342 0.9 7.0 0.00 0.11 0.00 74 1010.2
20260904143856 62 344 1.7 7.0 0.00 0.11 0.00 74 1009.9
20260904134536 62 323 0.9 2.6 0.00 0.11 0.11 74 1010.2
20260904134015 62 323 0.9 2.6 0.00 0.11 0.11 74 1010.3
20260904133521 62 0 0.0 2.6 0.00 0.11 0.11 74 1010.4
20260904133032 62 0 0.9 4.3 0.00 0.11 0.11 74 1010.4
20260904132519 62 0 0.0 7.0 0.00 0.11 0.11 74 1010.0
20260904132022 62 355 1.7 7.0 0.00 0.11 0.11 74 1010.0
20260904131544 62 348 0.9 4.3 0.00 0.11 0.11 74 1009.9
20260904131017 63 346 1.7 4.3 0.00 0.11 0.11 74 1009.8
20260904130518 63 348 0.0 4.3 0.00 0.11 0.11 74 1010.0
20260904130039 63 355 0.9 7.0 0.00 0.11 0.11 74 1010.0
20260904125519 63 360 1.7 7.0 0.00 0.11 0.11 74 1009.7
20260904125020 63 360 0.9 5.2 0.00 0.11 0.11 74 1009.8
20260904124532 63 355 1.7 5.2 0.00 0.11 0.11 74 1009.8
20260904124015 63 355 0.9 5.2 0.00 0.11 0.11 74 1009.9
20260904123517 63 355 1.7 6.1 0.00 0.11 0.11 74 1010.0
20260904123034 63 0 0.9 6.1 0.00 0.11 0.11 74 1010.0
20260904122519 63 18 0.9 7.0 0.00 0.11 0.11 73 1010.2
20260904122019 64 19 1.7 7.0 0.00 0.11 0.11 73 1010.3
20260904121532 64 360 1.7 7.8 0.00 0.11 0.11 73 1010.4
20260904121016 64 53 1.7 7.8 0.00 0.11 0.11 73 1010.4
20260904120517 64 355 1.7 4.3 0.00 0.11 0.11 73 1010.4
20260904120045 64 350 1.7 5.2 0.00 0.11 0.11 73 1010.4
20260904115521 64 33 1.7 7.0 0.00 0.11 0.11 72 1010.6
20260904115016 64 355 1.7 8.7 0.00 0.11 0.11 72 1010.5
20260904114534 65 17 1.7 8.7 0.00 0.11 0.11 72 1010.6
20260904114016 65 59 2.6 8.7 0.00 0.11 0.11 72 1010.6
20260904113519 65 329 3.5 8.7 0.00 0.11 0.11 72 1010.7
20260904113033 65 80 3.5 8.7 0.00 0.11 0.11 71 1010.9
20260904112519 65 348 1.7 10.4 0.00 0.11 0.11 71 1010.7
20260904112016 65 355 1.7 10.4 0.00 0.11 0.11 71 1010.9
20260904111541 65 355 1.7 7.8 0.00 0.11 0.11 71 1010.9
20260904111015 65 355 1.7 7.8 0.00 0.11 0.11 71 1010.8
20260904110515 65 355 0.9 10.4 0.00 0.11 0.11 71 1010.8
20260904110036 66 351 1.7 10.4 0.00 0.11 0.11 71 1010.6
20260904105519 66 27 2.6 10.4 0.00 0.11 0.11 71 1010.6
20260904105019 66 17 2.6 9.6 0.00 0.11 0.11 71 1010.8
20260904104725 66 327 1.7 9.6 0.00 0.11 0.11 71 1010.7
20260904102019 66 13 2.6 7.8 0.00 0.11 0.11 71 1010.0
20260904101537 66 348 2.6 7.8 0.00 0.11 0.11 71 1010.9
20260904101015 66 355 2.6 7.8 0.00 0.11 0.11 72 1011.1
20260904100518 66 0 1.7 7.0 0.00 0.11 0.11 72 1010.8
20260904100035 66 349 1.7 7.0 0.00 0.11 0.11 73 1010.9
20260904095517 66 329 1.7 7.0 0.00 0.11 0.11 73 1010.9
20260904095020 66 0 2.6 8.7 0.00 0.11 0.11 74 1010.8
20260904094536 66 335 1.7 8.7 0.00 0.11 0.11 74 1010.6
20260904094018 66 20 3.5 8.7 0.00 0.11 0.11 74 1010.3
20260904093516 66 17 3.5 7.8 0.00 0.11 0.11 75 1010.3
20260904093033 66 360 0.9 7.8 0.00 0.11 0.11 75 1010.4
20260904092520 66 13 1.7 7.0 0.00 0.11 0.11 76 1010.2
20260904092018 66 15 1.7 4.3 0.00 0.11 0.11 76 1010.1
20260904091534 66 17 1.7 4.3 0.00 0.11 0.11 76 1010.1
20260904091017 66 22 1.7 4.3 0.00 0.11 0.11 76 1010.3
20260904090515 66 17 0.9 4.3 0.00 0.11 0.11 76 1010.2
20260904090034 66 17 1.7 4.3 0.00 0.11 0.11 76 1010.2
20260904085515 66 0 0.9 5.2 0.00 0.11 0.11 76 1010.2
20260904085016 66 17 1.7 6.1 0.00 0.11 0.11 76 1010.2
20260904084535 66 22 0.9 7.0 0.00 0.11 0.11 76 1010.2
20260904084019 66 0 0.9 7.0 0.00 0.11 0.11 76 1010.4
20260904083631 66 18 0.9 7.0 0.00 0.11 0.11 76 1010.3
20260904065524 69 348 1.7 4.3 0.00 0.10 0.10 72 1010.7
20260904065020 69 346 1.7 5.2 0.00 0.10 0.10 72 1010.6
20260904064537 69 350 0.9 5.2 0.00 0.10 0.10 72 1010.8
20260904064016 69 0 0.9 5.2 0.00 0.10 0.10 71 1010.9
20260904063516 69 13 1.7 7.8 0.00 0.10 0.10 70 1011.0
20260904063032 69 355 1.7 7.8 0.00 0.10 0.10 69 1010.9
20260904062521 70 9 2.6 7.8 0.00 0.10 0.10 69 1011.0
20260904062018 70 26 2.6 8.7 0.00 0.10 0.10 69 1010.9
20260904061539 70 43 1.7 8.7 0.00 0.10 0.10 69 1011.0
20260904061018 70 35 1.7 7.0 0.00 0.10 0.10 69 1011.0
20260904060515 70 322 1.7 7.0 0.00 0.10 0.10 69 1011.1
20260904060035 69 35 0.9 7.0 0.00 0.10 0.10 69 1011.2
20260904055518 69 29 1.7 7.0 0.00 0.10 0.10 69 1011.2
20260904055020 69 360 1.7 7.0 0.00 0.10 0.10 69 1011.3
20260904054535 69 96 2.6 7.0 0.00 0.10 0.10 69 1011.3
20260904054018 69 60 2.6 7.0 0.00 0.10 0.10 71 1011.2
20260904053519 69 10 1.7 7.0 0.00 0.10 0.10 71 1011.4
20260904053036 68 28 2.6 7.0 0.00 0.10 0.10 72 1011.5
20260904052517 67 346 1.7 7.8 0.00 0.10 0.10 72 1011.4
20260904052021 67 80 2.6 7.8 0.00 0.10 0.10 72 1011.6
20260904051533 67 0 0.9 7.0 0.00 0.10 0.10 72 1011.8
20260904051017 67 9 1.7 7.0 0.00 0.10 0.10 73 1011.9
20260904050517 66 355 1.7 5.2 0.00 0.10 0.10 73 1012.0
20260904050036 66 351 2.6 5.2 0.00 0.10 0.10 73 1012.1
20260904045518 66 342 1.7 5.2 0.00 0.10 0.10 73 1012.0
20260904045021 66 346 1.7 5.2 0.00 0.10 0.10 73 1012.1
20260904044532 65 334 1.7 4.3 0.00 0.10 0.10 73 1012.2
20260904044018 65 360 0.9 3.5 0.00 0.10 0.10 72 1012.4
20260904043515 65 0 0.0 5.2 0.00 0.10 0.10 72 1012.4
20260904043033 65 13 1.7 7.0 0.00 0.10 0.10 72 1012.3
20260904042518 65 50 1.7 7.0 0.00 0.10 0.10 72 1012.4
20260904042016 65 340 1.7 7.0 0.00 0.10 0.10 73 1012.2
20260904041536 65 338 1.7 7.0 0.00 0.10 0.10 72 1012.5
20260904041023 65 0 1.7 5.2 0.00 0.10 0.10 73 1012.7
20260904040519 65 344 0.9 4.3 0.00 0.10 0.10 73 1012.7
20260904040031 65 342 1.7 5.2 0.00 0.10 0.10 73 1012.9
20260904035519 65 14 1.7 8.7 0.00 0.10 0.10 73 1013.0
20260904035018 65 19 2.6 8.7 0.00 0.10 0.10 73 1013.2
20260904034535 65 355 1.7 7.8 0.00 0.10 0.10 74 1013.2
20260904034018 65 360 1.7 7.8 0.00 0.10 0.10 75 1013.3
20260904033516 65 26 2.6 7.8 0.00 0.10 0.10 76 1013.7
20260904033127 64 60 3.5 7.8 0.00 0.10 0.10 77 1013.5
20260904032517 64 72 3.5 7.8 0.03 0.10 0.10 78 1013.7
20260904032019 64 96 2.6 8.7 0.04 0.10 0.10 80 1013.8
20260904031534 63 59 2.6 8.7 0.04 0.10 0.10 80 1014.0
20260904031020 63 11 2.6 7.8 0.04 0.10 0.10 82 1014.2
20260904030520 62 351 2.6 7.8 0.04 0.10 0.10 83 1014.1
20260904030033 62 142 2.6 7.8 0.04 0.10 0.10 84 1014.4
20260904025519 61 94 2.6 6.1 0.05 0.10 0.10 84 1014.3
20260904025016 61 120 0.9 7.8 0.07 0.10 0.10 83 1014.4
20260904024534 60 121 2.6 7.8 0.07 0.10 0.10 83 1014.4
20260904024021 60 79 1.7 6.1 0.08 0.10 0.10 82 1014.5
20260904023516 60 78 1.7 6.1 0.09 0.10 0.10 81 1014.8
20260904023039 60 80 1.7 6.1 0.09 0.10 0.10 81 1015.2
20260904022516 60 86 0.9 3.5 0.07 0.07 0.07 80 1015.7
20260904022019 60 86 0.0 2.6 0.05 0.06 0.05 79 1016.7
20260904021539 60 86 0.9 2.6 0.05 0.06 0.05 79 1016.2
20260904021022 60 86 0.0 1.7 0.05 0.06 0.05 78 1016.6
20260904020520 60 0 0.0 2.6 0.05 0.06 0.05 78 1017.3
20260904020032 60 86 0.0 5.2 0.05 0.06 0.05 78 1016.8
20260904015515 60 86 1.7 7.0 0.04 0.05 0.04 77 1016.2
20260904015020 60 49 2.6 7.8 0.03 0.03 0.03 76 1016.1
20260904014545 60 28 2.6 7.8 0.02 0.03 0.02 75 1016.4
20260904014018 60 57 1.7 4.3 0.01 0.02 0.01 75 1016.7
20260904013515 60 0 0.0 4.3 0.00 0.01 0.00 75 1017.1
20260904013039 60 59 0.9 3.5 0.00 0.00 0.00 74 1017.3
20260904012516 60 58 0.9 7.8 0.00 0.00 0.00 74 1017.1
20260904012019 60 62 1.7 7.8 0.00 0.00 0.00 74 1017.2
20260904011534 61 45 2.6 7.0 0.00 0.00 0.00 74 1017.2
20260904011015 61 48 2.6 7.8 0.00 0.00 0.00 73 1017.0
20260904010516 61 42 3.5 8.7 0.00 0.00 0.00 73 1017.1
20260904010034 61 355 2.6 8.7 0.00 0.00 0.00 72 1017.3
20260904005518 62 34 2.6 8.7 0.00 0.00 0.00 71 1017.7
20260904005019 62 19 3.5 9.6 0.00 0.00 0.00 70 1017.6
20260904004537 62 22 2.6 9.6 0.00 0.00 0.00 70 1017.7
20260904004016 62 318 3.5 9.6 0.00 0.00 0.00 69 1018.2
20260904003519 62 65 4.3 8.7 0.00 0.00 0.00 69 1018.2
20260904003034 62 43 2.6 8.7 0.00 0.00 0.00 70 1018.3
20260904002518 63 22 3.5 8.7 0.00 0.00 0.00 70 1018.4
20260904002016 63 51 2.6 8.7 0.00 0.00 0.00 70 1018.3
20260904001533 63 24 3.5 8.7 0.00 0.00 0.00 69 1018.1
20260904001015 63 59 2.6 7.8 0.00 0.00 0.00 70 1018.2
20260904000516 63 355 0.9 7.0 0.00 0.00 0.00 70 1017.8
20260904000036 63 348 1.7 6.1 0.00 0.00 0.00 70 1017.9
20260903235518 63 360 1.7 7.0 0.00 0.00 0.00 71 1017.7
20260903235019 62 355 2.6 7.0 0.00 0.00 0.00 71 1017.6
20260903234535 62 355 1.7 7.0 0.00 0.00 0.00 71 1017.7
20260903234019 62 15 1.7 7.0 0.00 0.00 0.00 72 1017.7
20260903233521 61 20 2.6 8.7 0.00 0.00 0.00 72 1017.7
20260903233033 61 40 2.6 8.7 0.00 0.00 0.00 72 1017.7
20260903232518 61 81 2.6 8.7 0.00 0.00 0.00 73 1017.7
20260903232018 61 46 1.7 7.0 0.00 0.00 0.00 73 1017.8
20260903231534 60 26 1.7 7.0 0.00 0.00 0.00 73 1018.1
20260903231017 60 15 0.9 7.0 0.00 0.00 0.00 74 1018.2
20260903230519 60 78 2.6 7.0 0.00 0.00 0.00 74 1018.1
20260903230035 60 355 2.6 6.1 0.00 0.00 0.00 74 1018.0
20260903225523 59 53 1.7 7.0 0.00 0.00 0.00 74 1018.1
20260903225023 59 37 2.6 7.0 0.00 0.00 0.00 75 1018.0
20260903224534 59 9 1.7 6.1 0.00 0.00 0.00 76 1017.9
20260903224018 59 57 0.9 7.0 0.00 0.00 0.00 76 1017.9
20260903223518 59 70 2.6 7.0 0.00 0.00 0.00 76 1018.0
20260903223034 58 90 0.9 6.1 0.00 0.00 0.00 76 1018.1
20260903222523 58 0 0.9 6.1 0.00 0.00 0.00 76 1018.0
20260903222020 58 18 1.7 6.1 0.00 0.00 0.00 76 1018.1
20260903221537 58 19 0.9 4.3 0.00 0.00 0.00 77 1018.2
20260903221019 58 22 1.7 4.3 0.00 0.00 0.00 77 1018.3
20260903220520 58 26 1.7 6.1 0.00 0.00 0.00 77 1018.2
20260903220042 58 45 1.7 6.1 0.00 0.00 0.00 78 1018.0
20260903215522 58 27 1.7 4.3 0.00 0.00 0.00 78 1017.8
20260903215015 57 360 0.9 5.2 0.00 0.00 0.00 78 1017.8
20260903214536 57 360 1.7 5.2 0.00 0.00 0.00 78 1018.0
20260903214023 57 360 1.7 4.3 0.00 0.00 0.00 78 1018.0
20260903213520 57 360 0.0 3.5 0.00 0.00 0.00 78 1018.0
20260903213036 57 360 0.9 9.6 0.00 0.00 0.00 78 1017.9
20260903212520 57 0 1.7 9.6 0.00 0.00 0.00 78 1017.6
20260903212019 57 360 0.9 7.0 0.00 0.00 0.00 78 1017.4
20260903211535 57 360 1.7 7.0 0.00 0.00 0.00 78 1017.4
20260903211018 57 96 1.7 3.5 0.00 0.00 0.00 78 1017.3
20260903210519 57 0 0.0 2.6 0.00 0.00 0.00 78 1017.6
20260903210034 57 100 0.0 4.3 0.00 0.00 0.00 79 1017.5
20260903205516 57 360 0.9 4.3 0.00 0.00 0.00 79 1017.6
20260903205018 56 360 0.9 5.2 0.00 0.00 0.00 79 1017.9
20260903204534 56 360 0.9 5.2 0.00 0.00 0.00 79 1017.8
20260903204018 56 0 0.9 7.0 0.00 0.00 0.00 79 1017.8
20260903203517 56 0 0.9 7.0 0.00 0.00 0.00 80 1017.9
20260903203033 56 118 1.7 7.0 0.00 0.00 0.00 80 1018.0
20260903202520 56 96 1.7 6.1 0.00 0.00 0.00 80 1017.8
20260903202019 56 21 0.9 6.1 0.00 0.00 0.00 80 1018.1
20260903201535 56 27 0.0 4.3 0.00 0.00 0.00 81 1018.3
20260903201023 56 25 0.9 4.3 0.00 0.00 0.00 81 1018.3
20260903200518 56 13 0.9 7.0 0.00 0.00 0.00 81 1018.4
20260903200034 56 13 1.7 7.0 0.00 0.00 0.00 81 1018.3
20260903195516 55 17 1.7 4.3 0.00 0.00 0.00 81 1018.3
20260903195020 55 0 0.9 3.5 0.00 0.00 0.00 81 1018.5
20260903194534 55 17 1.7 4.3 0.00 0.00 0.00 81 1018.5
20260903194017 55 17 0.9 7.0 0.00 0.00 0.00 82 1018.5
20260903193518 55 16 1.7 7.0 0.00 0.00 0.00 82 1018.4
20260903193035 55 11 1.7 7.0 0.00 0.00 0.00 82 1018.6
20260903192519 55 18 1.7 4.3 0.00 0.00 0.00 82 1018.7
20260903192019 55 18 1.7 4.3 0.00 0.00 0.00 82 1018.8
20260903191532 55 26 0.9 7.0 0.00 0.00 0.00 82 1018.9
20260903191019 55 0 1.7 7.0 0.00 0.00 0.00 82 1018.9
20260903190517 55 34 1.7 5.2 0.00 0.00 0.00 82 1018.7
20260903190037 55 43 0.9 5.2 0.00 0.00 0.00 82 1018.8
20260903185515 55 49 0.9 5.2 0.00 0.00 0.00 82 1018.6
20260903185018 55 59 1.7 6.1 0.00 0.00 0.00 81 1018.3
20260903184537 55 58 1.7 6.1 0.00 0.00 0.00 81 1018.1
20260903184016 55 83 1.7 5.2 0.00 0.00 0.00 81 1018.2
20260903183520 54 65 0.0 4.3 0.00 0.00 0.00 80 1018.6
20260903183035 55 66 0.0 7.0 0.00 0.00 0.00 80 1018.7
20260903182522 54 74 0.9 7.0 0.00 0.00 0.00 80 1018.2
20260903182021 54 257 0.9 5.2 0.00 0.00 0.00 80 1018.2
20260903181536 55 258 0.0 2.6 0.00 0.00 0.00 79 1018.5
20260903181020 55 0 0.0 1.7 0.00 0.00 0.00 79 1018.9
20260903180519 55 0 0.0 0.0 0.00 0.00 0.00 79 1019.2
20260903180045 55 0 0.0 0.0 0.00 0.00 0.00 78 1019.3
20260903175518 55 0 0.0 0.0 0.00 0.00 0.00 78 1019.4
20260903175019 55 0 0.0 0.0 0.00 0.00 0.00 78 1019.4
20260903174536 55 0 0.0 0.0 0.00 0.00 0.00 78 1019.3
20260903174018 55 0 0.0 0.0 0.00 0.00 0.00 78 1019.3
20260903173520 56 0 0.0 0.0 0.00 0.00 0.00 78 1019.3
20260903173034 56 0 0.0 0.0 0.00 0.00 0.00 78 1019.4
20260903172518 56 0 0.0 1.7 0.00 0.00 0.00 78 1019.7
20260903172017 56 0 0.0 3.5 0.00 0.00 0.00 77 1019.8
20260903171543 56 0 0.9 3.5 0.00 0.00 0.00 77 1020.0
20260903171019 56 256 0.9 3.5 0.00 0.00 0.00 77 1020.2
20260903170516 56 244 0.0 3.5 0.00 0.00 0.00 77 1020.2
20260903170043 56 0 0.0 1.7 0.00 0.00 0.00 76 1020.1
20260903165522 56 0 0.0 1.7 0.00 0.00 0.00 76 1020.1
20260903165018 56 0 0.0 0.9 0.00 0.00 0.00 76 1020.1
20260903164542 56 0 0.0 0.9 0.00 0.00 0.00 76 1020.1
20260903164019 56 0 0.0 0.9 0.00 0.00 0.00 75 1020.1
20260903163517 56 0 0.0 0.9 0.00 0.00 0.00 75 1020.3
20260903163036 56 0 0.0 0.0 0.00 0.00 0.00 75 1020.4
20260903162515 56 0 0.0 0.0 0.00 0.00 0.00 75 1020.5
20260903162018 56 0 0.0 0.0 0.00 0.00 0.00 75 1020.6
20260903161533 56 0 0.0 0.0 0.00 0.00 0.00 74 1020.5
20260903161019 56 0 0.0 0.0 0.00 0.00 0.00 74 1020.4
20260903160522 56 0 0.0 0.0 0.00 0.00 0.00 74 1020.3